TimeEST,TemperatureF,Dew PointF,Humidity,Sea Level PressureIn,VisibilityMPH,Wind Direction,Wind SpeedMPH,Gust SpeedMPH,PrecipitationIn,Events,Conditions,WindDirDegrees,DateUTC
12:53 AM,30.0,27.0,88,30.11,9.0,Calm,Calm,-,N/A,,Overcast,0,2011-11-24 05:53:00
1:53 AM,30.0,26.1,85,30.10,9.0,SSW,3.5,-,N/A,,Overcast,200,2011-11-24 06:53:00
2:53 AM,30.9,27.0,85,30.09,10.0,South,5.8,-,N/A,,Overcast,190,2011-11-24 07:53:00
3:53 AM,30.9,28.0,89,30.07,10.0,South,4.6,-,N/A,,Overcast,180,2011-11-24 08:53:00
4:53 AM,30.9,27.0,85,30.09,10.0,WSW,3.5,-,N/A,,Mostly Cloudy,250,2011-11-24 09:53:00
5:36 AM,28.4,26.6,93,30.07,10.0,SW,6.9,-,N/A,,Scattered Clouds,220,2011-11-24 10:36:00
5:53 AM,28.9,26.1,89,30.08,10.0,SW,6.9,-,N/A,,Clear,220,2011-11-24 10:53:00
6:21 AM,32.0,28.4,87,30.06,10.0,SSW,11.5,-,N/A,,Mostly Cloudy,210,2011-11-24 11:21:00
6:53 AM,33.1,28.9,85,30.10,10.0,WSW,8.1,-,N/A,,Overcast,240,2011-11-24 11:53:00
7:30 AM,33.8,30.2,87,30.08,10.0,SSW,12.7,-,N/A,,Overcast,210,2011-11-24 12:30:00
7:53 AM,33.8,30.2,87,30.09,10.0,SW,11.5,-,N/A,,Overcast,220,2011-11-24 12:53:00
8:01 AM,33.8,30.2,87,30.09,10.0,SW,11.5,-,N/A,,Overcast,230,2011-11-24 13:01:00
8:38 AM,35.6,30.2,81,30.09,10.0,SW,9.2,-,N/A,,Overcast,220,2011-11-24 13:38:00
8:53 AM,35.1,30.9,85,30.12,10.0,SW,9.2,-,N/A,,Overcast,230,2011-11-24 13:53:00
9:10 AM,35.6,30.2,81,30.10,10.0,SW,10.4,-,N/A,,Overcast,220,2011-11-24 14:10:00
9:53 AM,35.1,30.9,85,30.12,10.0,SW,9.2,-,N/A,,Overcast,220,2011-11-24 14:53:00
10:53 AM,36.0,32.0,86,30.12,10.0,SSW,9.2,-,N/A,,Overcast,210,2011-11-24 15:53:00
11:53 AM,37.0,32.0,82,30.10,10.0,SW,10.4,-,N/A,,Overcast,220,2011-11-24 16:53:00
12:53 PM,37.9,33.1,83,30.09,10.0,SW,9.2,-,N/A,,Overcast,220,2011-11-24 17:53:00
1:53 PM,37.9,34.0,86,30.07,9.0,SSW,11.5,-,N/A,,Overcast,210,2011-11-24 18:53:00
2:53 PM,37.9,34.0,86,30.08,8.0,SW,10.4,-,N/A,,Overcast,220,2011-11-24 19:53:00
3:53 PM,39.0,34.0,82,30.08,7.0,SW,8.1,-,N/A,,Overcast,230,2011-11-24 20:53:00
4:53 PM,37.4,33.8,87,30.08,8.0,SW,5.8,-,N/A,,Overcast,230,2011-11-24 21:53:00
5:53 PM,37.9,34.0,86,30.10,7.0,SSW,4.6,-,N/A,,Overcast,200,2011-11-24 22:53:00
6:53 PM,39.0,35.1,86,30.10,7.0,SW,9.2,-,N/A,,Overcast,230,2011-11-24 23:53:00
7:53 PM,39.0,35.1,86,30.09,5.0,SW,5.8,-,N/A,,Overcast,230,2011-11-25 00:53:00
8:53 PM,37.9,35.1,89,30.08,4.0,SW,4.6,-,N/A,,Overcast,220,2011-11-25 01:53:00
9:12 PM,37.4,35.6,93,30.06,4.0,SW,5.8,-,N/A,,Overcast,220,2011-11-25 02:12:00
9:53 PM,37.9,35.1,89,30.06,3.0,SW,3.5,-,N/A,,Overcast,220,2011-11-25 02:53:00
10:53 PM,41.0,37.0,86,30.04,5.0,SSW,11.5,-,N/A,,Overcast,210,2011-11-25 03:53:00
11:53 PM,43.0,37.9,82,30.03,6.0,SW,12.7,-,N/A,,Haze,220,2011-11-25 04:53:00